This is the latest recevied weather packets stored in our database for station/object DL9TPA-1. If no packets are shown the sender has not sent any weather packets the latest 10 day(s).
| Time | Temp. | Humidity | Pressure | Rain* | Wind** | Luminosity | Snow |
|---|---|---|---|---|---|---|---|
| 1777401390 | 11.67° C | 41% | 1021.9 hPa | 0 mm | - | - | - |
| 1777400786 | 11.67° C | 41% | 1021.8 hPa | 0 mm | - | - | - |
| 1777400185 | 12.22° C | 41% | 1021.7 hPa | 0 mm | - | - | - |
| 1777399582 | 12.22° C | 41% | 1021.5 hPa | 0 mm | - | - | - |
| 1777398979 | 12.78° C | 41% | 1021.4 hPa | 0 mm | - | - | - |
| 1777398380 | 12.78° C | 42% | 1021.4 hPa | 0 mm | - | - | - |
| 1777397777 | 12.78° C | 42% | 1021.3 hPa | 0 mm | - | - | - |
| 1777397173 | 13.33° C | 42% | 1021.3 hPa | 0 mm | - | - | - |
| 1777396571 | 13.33° C | 43% | 1021.2 hPa | 0 mm | - | - | - |
| 1777395972 | 13.33° C | 43% | 1021.2 hPa | 0 mm | - | - | - |
| 1777395368 | 13.89° C | 43% | 1021.1 hPa | 0 mm | - | - | - |
| 1777394766 | 13.89° C | 44% | 1021 hPa | 0 mm | - | - | - |
| 1777394166 | 13.89° C | 44% | 1020.9 hPa | 0 mm | - | - | - |
| 1777393561 | 13.89° C | 44% | 1020.9 hPa | 0 mm | - | - | - |
| 1777392959 | 14.44° C | 44% | 1020.9 hPa | 0 mm | - | - | - |
| 1777392359 | 14.44° C | 44% | 1020.9 hPa | 0 mm | - | - | - |
| 1777391756 | 14.44° C | 44% | 1020.9 hPa | 0 mm | - | - | - |
| 1777391154 | 14.44° C | 44% | 1020.8 hPa | 0 mm | - | - | - |
| 1777390552 | 14.44° C | 44% | 1020.9 hPa | 0 mm | - | - | - |
| 1777389950 | 15° C | 44% | 1021 hPa | 0 mm | - | - | - |
| 1777389351 | 15° C | 43% | 1021.1 hPa | 0 mm | - | - | - |
| 1777388745 | 15.56° C | 42% | 1021.1 hPa | 0 mm | - | - | - |
| 1777388145 | 16.11° C | 43% | 1021.2 hPa | 0 mm | - | - | - |
| 1777387543 | 16.11° C | 42% | 1021.3 hPa | 0 mm | - | - | - |
| 1777386940 | 17.22° C | 41% | 1021.4 hPa | 0 mm | - | - | - |
* Rain latest hour (hover to see other rain measurements)
** Current wind speed in m/s (hover to see current wind gust speed)